Epoch = 2021 May 26.0 TT T = 2021 June 6.55768 TT Peri. = 21.19089 e = 0.6769307 Node = 301.14414 2000.0 q = 0.9619964 AU Incl. = 11.50455 a = 2.9776785 AU n = 0.19181712 P = 5.14 years
m1 = 17.5 + 5 log d + 10.0 log r